CW2969 Weather Reports


time (UTC)temp
F
wind
direction
speed
knots
gust
knots
rain 1hr
in
rain 24hr
in
rain mn
in
humidity
%
barometer
mb
20240222102937 67 263 1.7 6.1 0.00 0.00 0.00 80 1011.9
20240222101937 67 296 1.7 2.6 0.00 0.00 0.00 81 1011.8
20240222100937 67 349 0.0 0.9 0.00 0.00 0.00 80 1011.8
20240222095937 67 238 1.7 3.5 0.00 0.00 0.00 80 1011.7
20240222093936 67 257 1.7 2.6 0.00 0.00 0.00 80 1011.5
20240222092938 67 284 0.9 4.3 0.00 0.00 0.00 80 1011.0
20240222090936 67 230 4.3 6.1 0.00 0.00 0.00 80 1010.6
20240222085936 67 215 4.3 6.1 0.00 0.00 0.00 80 1010.8
20240222084936 67 147 3.5 11.3 0.00 0.00 0.00 80 1010.9
20240222083936 67 182 5.2 5.2 0.00 0.00 0.00 80 1011.1
20240222082936 67 175 3.5 9.6 0.00 0.00 0.00 80 1011.1
20240222081936 67 205 1.7 3.5 0.00 0.00 0.00 80 1011.1
20240222080935 67 213 10.4 10.4 0.00 0.00 0.00 80 1011.4
20240222075936 67 277 2.6 6.1 0.00 0.00 0.00 80 1011.5
20240222074935 67 177 2.6 7.0 0.00 0.00 0.00 80 1011.3
20240222073936 67 168 8.7 8.7 0.00 0.00 0.00 80 1011.0
20240222072935 67 209 7.0 10.4 0.00 0.00 0.00 80 1011.1
20240222071935 67 282 0.9 12.2 0.00 0.00 0.00 80 1011.4
20240222070936 67 302 1.7 11.3 0.00 0.00 0.00 80 1011.4
20240222065935 67 195 6.1 7.8 0.00 0.00 0.00 81 1011.5
20240222062935 67 215 3.5 13.9 0.00 0.00 0.00 82 1011.9
20240222060935 67 225 5.2 8.7 0.00 0.00 0.00 82 1012.5
20240222055935 67 207 6.1 10.4 0.00 0.00 0.00 82 1012.5
20240222054935 67 257 1.7 5.2 0.00 0.00 0.00 82 1012.4
20240222053935 67 168 6.1 10.4 0.00 0.00 0.00 82 1012.8
20240222052934 67 173 6.1 7.8 0.00 0.00 0.00 82 1012.9
20240222051935 67 239 4.3 6.1 0.00 0.00 0.00 82 1013.0
20240222050935 67 245 2.6 6.1 0.00 0.00 0.00 82 1012.9
20240222045935 67 209 11.3 11.3 0.00 0.00 0.00 82 1013.0
20240222043934 67 134 9.6 9.6 0.00 0.00 0.00 81 1012.8
20240222042935 67 206 2.6 8.7 0.00 0.00 0.00 81 1012.7
20240222041934 67 229 7.0 18.2 0.00 0.00 0.00 81 1012.6
20240222040935 67 194 8.7 14.8 0.00 0.00 0.00 81 1012.5
20240222035934 67 180 8.7 9.6 0.00 0.00 0.00 81 1012.5
20240222034934 67 155 13.0 13.0 0.00 0.00 0.00 81 1012.5
20240222032934 67 159 4.3 11.3 0.00 0.00 0.00 80 1012.5
20240222031933 67 191 8.7 13.9 0.00 0.00 0.00 80 1012.6
20240222030935 67 150 3.5 11.3 0.00 0.00 0.00 80 1012.5
20240222025933 67 206 6.1 10.4 0.00 0.00 0.00 79 1012.6
20240222024933 68 109 8.7 9.6 0.00 0.00 0.00 78 1012.0
20240222023933 68 167 2.6 7.8 0.00 0.00 0.00 78 1011.8
20240222022933 68 209 1.7 14.8 0.00 0.00 0.00 77 1011.4
20240222021933 69 208 5.2 13.0 0.00 0.00 0.00 75 1011.7
20240222015933 69 168 10.4 12.2 0.00 0.00 0.00 74 1012.0
20240222014933 70 124 3.5 12.2 0.00 0.00 0.00 73 1011.7
20240222013932 70 173 2.6 10.4 0.00 0.00 0.00 72 1011.9
20240222012932 71 152 7.8 7.8 0.00 0.00 0.00 72 1012.1
20240222011932 71 289 4.3 8.7 0.00 0.00 0.00 71 1012.1
20240222010932 72 207 2.6 8.7 0.00 0.00 0.00 71 1012.4
20240222004932 73 176 4.3 9.6 0.00 0.00 0.00 69 1012.9
20240222003932 73 140 2.6 5.2 0.00 0.00 0.00 68 1013.0
20240222002931 74 220 4.3 7.8 0.00 0.00 0.00 67 1013.1
20240222001931 74 165 5.2 12.2 0.00 0.00 0.00 66 1013.1
20240222000931 75 202 3.5 10.4 0.00 0.00 0.00 65 1013.1
20240221235931 76 114 11.3 12.2 0.00 0.00 0.00 63 1013.3
20240221234931 77 188 6.1 9.6 0.00 0.00 0.00 61 1013.3
20240221233931 77 157 2.6 7.8 0.00 0.00 0.00 60 1013.3
20240221232931 78 161 4.3 5.2 0.00 0.00 0.00 60 1013.1
20240221231931 78 150 5.2 8.7 0.00 0.00 0.00 59 1012.8
20240221224931 78 195 7.0 15.6 0.00 0.00 0.00 59 1013.1
20240221222931 78 136 11.3 12.2 0.00 0.00 0.00 61 1013.2
20240221221932 79 157 10.4 10.4 0.00 0.00 0.00 61 1013.6
20240221214930 77 172 5.2 11.3 0.00 0.00 0.00 64 1013.9
20240221213930 77 138 3.5 13.9 0.00 0.00 0.00 63 1014.0
20240221212930 77 130 2.6 6.1 0.00 0.00 0.00 65 1014.1
20240221211930 76 150 7.8 13.0 0.00 0.00 0.00 65 1014.4
20240221205930 75 187 5.2 9.6 0.00 0.00 0.00 68 1014.7
20240221204929 74 188 8.7 11.3 0.00 0.00 0.00 68 1014.9
20240221203929 73 218 4.3 18.2 0.00 0.00 0.00 70 1015.2
20240221202929 72 117 6.1 13.9 0.00 0.00 0.00 71 1015.3
20240221201929 72 209 8.7 12.2 0.00 0.00 0.00 71 1015.7
20240221200929 72 177 6.1 10.4 0.00 0.00 0.00 72 1016.0
20240221195929 71 167 5.2 14.8 0.00 0.00 0.00 73 1016.3
20240221194929 72 147 12.2 12.2 0.00 0.00 0.00 73 1016.5
20240221193929 72 225 7.8 7.8 0.00 0.00 0.00 72 1016.8
20240221192929 71 249 7.0 9.6 0.00 0.00 0.00 75 1017.1
20240221191929 70 232 6.1 13.0 0.00 0.00 0.00 75 1017.4
20240221190928 70 222 4.3 9.6 0.00 0.00 0.00 77 1017.7
20240221185928 70 194 6.1 10.4 0.00 0.00 0.00 77 1017.9
20240221184928 70 184 7.0 10.4 0.00 0.00 0.00 77 1018.0
20240221183928 70 162 0.9 8.7 0.00 0.00 0.00 77 1018.3
20240221182958 70 274 3.5 20.0 0.00 0.00 0.00 77 1018.5
20240221181958 69 159 8.7 10.4 0.00 0.00 0.00 79 1018.6
20240221180958 68 244 4.3 11.3 0.00 0.00 0.00 80 1018.9
20240221175959 68 190 6.1 10.4 0.00 0.00 0.00 80 1019.0
20240221174957 68 157 7.8 11.3 0.00 0.00 0.00 80 1019.1
20240221173957 68 200 7.0 10.4 0.00 0.00 0.00 80 1019.4
20240221171957 67 275 6.1 7.0 0.00 0.00 0.00 81 1019.7
20240221165957 66 195 4.3 7.0 0.00 0.00 0.00 82 1020.0
20240221164957 67 217 5.2 10.4 0.00 0.00 0.00 81 1020.1
20240221163957 67 159 7.8 8.7 0.00 0.00 0.00 81 1020.1
20240221162957 66 192 5.2 8.7 0.00 0.00 0.00 81 1020.2
20240221161956 66 184 5.2 7.8 0.00 0.00 0.00 82 1020.4
20240221160956 65 185 2.6 7.0 0.00 0.00 0.00 82 1020.5
20240221155956 65 177 1.7 5.2 0.00 0.00 0.00 82 1020.5
20240221154957 65 169 5.2 9.6 0.00 0.00 0.00 82 1020.5
20240221152956 64 254 3.5 8.7 0.00 0.00 0.00 83 1020.5
20240221150956 64 158 0.9 6.1 0.00 0.00 0.00 82 1020.4
20240221145956 63 168 8.7 8.7 0.00 0.00 0.00 82 1020.3
20240221144956 63 154 6.1 7.0 0.00 0.00 0.00 82 1020.2
20240221143956 63 265 2.6 5.2 0.00 0.00 0.00 82 1020.1
20240221142956 63 162 4.3 4.3 0.00 0.00 0.00 82 1020.1
20240221135955 63 163 1.7 6.1 0.00 0.00 0.00 82 1019.8
20240221134955 63 174 1.7 8.7 0.00 0.00 0.00 82 1019.9
20240221133955 63 136 7.0 8.7 0.00 0.00 0.00 82 1019.9
20240221132955 63 321 7.0 7.0 0.00 0.00 0.00 82 1019.9
20240221131955 63 175 1.7 2.6 0.00 0.00 0.00 82 1020.1
20240221130955 63 315 7.0 7.0 0.00 0.00 0.00 82 1020.1
20240221125955 63 189 4.3 4.3 0.00 0.00 0.00 82 1020.0
20240221123955 63 225 1.7 6.1 0.00 0.00 0.00 83 1020.1
20240221122955 63 175 7.8 10.4 0.00 0.00 0.00 83 1020.0
20240221121955 64 236 3.5 7.0 0.00 0.00 0.00 83 1019.9
20240221114954 63 230 4.3 10.4 0.00 0.00 0.00 83 1020.0
20240221113954 64 186 1.7 4.3 0.00 0.00 0.00 83 1019.9
20240221111956 64 281 3.5 7.8 0.00 0.00 0.00 83 1019.8
20240221105954 63 184 9.6 9.6 0.00 0.00 0.00 82 1019.7
20240221104954 63 246 6.1 10.4 0.00 0.00 0.00 82 1019.7
20240221103954 63 240 3.5 3.5 0.00 0.00 0.00 82 1019.7